Wind_Speed
4 4 4 3 1 3 4 3 7 7 7 6 7 10 18 21 26 28 29 30 29 29 29 33 32 31 31 29 27 29 27 22 18 8 13 25 33 37 38 39 39 39 39 37
4 3 4 1 3 4 6 6 8 7 7 7 8 14 13 22 21 24 23 26 30 30 32 34 35 34 34 34 35 32 30 29 26 22 14 14 20 34 42 42 43 41 40 38
3 3 4 2 5 6 4 3 4 5 7 5 3 7 5 8 20 24 26 27 29 29 31 34 36 37 37 37 35 36 34 32 29 30 27 17 14 14 25 41 39 41 43 42
5 2 4 5 3 5 4 3 5 7 6 2 6 4 5 6 8 13 25 29 27 28 29 31 34 36 36 35 30 29 33 34 33 32 32 29 27 28 24 22 40 45 47 46
6 2 2 2 1 3 7 5 7 8 4 2 4 2 3 8 8 9 18 26 26 22 25 27 29 30 29 29 31 27 27 30 30 29 27 27 29 33 29 28 27 40 49 49
8 7 3 2 3 4 6 6 12 4 4 2 6 7 1 3 3 7 13 22 22 26 19 22 24 27 30 27 28 29 30 28 27 26 25 25 27 32 37 34 30 32 43 50
7 3 4 7 5 8 11 6 4 5 2 5 5 4 4 5 9 11 13 16 18 22 13 20 22 28 27 26 35 30 31 28 26 32 32 30 32 31 34 36 35 31 38 48
4 4 3 6 3 2 4 2 3 4 3 4 13 4 6 9 15 15 16 18 16 20 12 16 19 22 21 27 33 30 27 25 28 29 32 34 32 34 36 39 38 35 34 42
6 4 4 5 2 2 4 3 4 1 4 1 4 4 2 6 5 14 17 23 18 19 14 18 21 23 25 30 35 27 20 26 28 35 34 34 32 35 37 43 42 40 33 35
3 5 4 2 2 4 3 3 4 3 3 5 6 4 4 6 7 11 19 25 25 10 17 19 23 29 34 34 38 26 27 35 35 32 33 33 32 36 41 38 39 39 31 34
4 2 7 6 3 1 4 3 2 2 4 5 4 6 6 3 12 22 37 42 38 22 21 23 25 26 29 28 18 25 31 32 29 32 27 31 35 37 38 36 36 35 33 32
4 2 4 7 4 4 3 2 2 4 6 3 3 9 8 14 29 34 30 29 22 15 16 21 25 27 25 18 26 31 32 32 28 31 35 37 38 34 36 37 37 40 38 35
3 2 4 5 5 6 4 4 3 2 2 6 3 9 11 32 31 34 33 23 16 15 22 27 26 25 25 27 29 31 30 31 34 36 35 37 39 33 34 38 41 38 39 40
3 2 6 6 4 2 7 5 6 3 2 10 15 22 22 21 23 29 22 18 21 22 24 26 28 33 31 29 30 30 30 36 38 40 36 40 38 34 37 37 39 36 39 38
5 3 4 10 9 10 15 17 14 13 13 10 25 22 20 15 8 11 21 25 26 28 34 32 36 29 30 34 34 34 37 41 39 40 41 39 38 40 37 39 36 34 32 38
2 3 3 9 9 12 15 14 18 17 16 16 18 18 8 20 21 19 25 25 28 33 35 33 31 33 36 31 32 41 40 40 40 38 40 40 39 36 43 34 30 29 39 40
1 0 3 5 5 10 8 5 2 3 3 6 12 15 4 8 17 21 27 28 30 29 26 36 36 38 37 34 39 37 40 39 36 45 37 37 41 41 37 29 33 38 38 38
4 2 1 4 5 3 5 9 5 7 7 8 9 8 11 18 31 32 32 32 31 29 36 37 42 37 35 40 39 39 39 39 40 38 38 43 36 36 34 40 41 44 39 41
16 5 2 1 2 9 10 4 2 3 9 7 6 11 28 37 34 30 32 32 29 36 36 37 38 41 37 40 43 40 41 39 40 38 42 36 36 41 40 41 45 45 36 36
9 5 5 2 1 5 6 5 11 6 14 5 17 23 21 19 13 18 38 39 43 36 37 38 39 41 43 46 43 40 40 41 39 41 35 41 41 37 41 42 42 43 37 36
4 2 12 9 5 8 11 14 6 3 8 30 28 20 22 13 24 41 40 39 39 41 43 44 45 46 47 45 44 41 39 41 40 37 40 38 38 37 40 41 40 45 39 34
7 5 4 2 3 10 1 7 2 12 28 26 22 23 29 35 40 40 42 42 44 46 46 45 46 47 44 42 40 35 42 39 35 36 37 35 36 43 42 40 43 43 32 31
4 7 4 9 7 8 15 19 25 25 18 22 30 33 33 38 42 44 43 44 46 46 47 46 46 46 45 38 39 40 34 35 40 39 36 37 44 38 42 35 42 37 30 29
5 10 5 3 4 10 23 36 24 20 27 34 34 36 36 37 38 44 46 46 46 46 46 45 46 46 43 40 39 36 41 36 37 40 39 44 37 36 34 36 39 32 33 29
7 2 5 7 19 24 23 13 21 27 32 33 29 29 34 37 40 41 44 46 48 49 49 47 45 44 44 42 41 36 33 36 36 37 37 32 31 35 32 36 34 26 23 22
15 7 5 7 12 10 17 13 20 26 26 32 35 37 37 35 37 41 45 47 47 49 51 53 50 48 46 42 38 36 33 30 34 38 32 32 35 31 33 34 29 19 17 19
Wind_Direction
220 55 248 256 182 232 257 276 291 280 299 15 317 312 326 359 78 76 71 66 61 53 44 35 32 31 32 28 27 29 29 30 45 19 261 261 252 241 244 250 255 254 258 260
18 243 188 259 326 331 312 296 291 294 3 10 318 302 57 68 78 82 75 65 57 44 32 24 20 19 19 13 9 9 12 14 15 12 4 320 282 256 254 257 254 252 257 262
201 246 163 36 349 326 305 299 319 286 330 300 325 339 105 79 93 80 66 65 54 43 32 24 18 15 11 11 7 357 353 352 349 350 351 342 303 288 274 250 248 253 258 261
271 225 67 40 3 32 322 333 331 324 22 310 67 281 177 128 86 67 55 49 49 42 35 29 21 16 9 6 2 0 357 349 341 337 340 342 340 334 307 288 256 261 261 259
260 2 33 23 20 5 251 323 295 277 232 338 336 150 330 105 59 33 44 37 36 32 31 30 21 13 9 6 5 357 358 354 349 341 331 333 335 328 324 292 288 263 257 258
232 267 17 94 333 284 314 345 299 297 138 186 252 196 229 27 85 41 27 30 30 18 21 20 14 8 7 3 356 356 351 347 345 345 333 325 327 330 320 315 300 291 265 253
333 35 90 49 9 359 24 29 338 8 13 216 351 0 136 125 76 51 15 16 19 7 11 13 10 3 4 358 352 349 346 342 337 336 335 327 314 319 321 317 311 309 283 257
337 330 40 343 111 251 301 144 130 285 297 282 340 232 196 134 84 46 32 7 4 3 5 5 1 360 354 350 350 338 340 337 332 335 333 329 320 316 309 313 311 305 300 272
8 283 2 65 69 80 327 26 192 279 276 306 242 75 198 137 65 26 8 3 348 349 3 2 1 360 352 346 345 343 347 339 325 319 320 322 312 310 315 307 305 305 305 291
12 310 305 328 304 342 128 197 22 4 290 283 282 254 197 13 347 349 350 347 336 0 5 2 355 349 342 341 337 326 328 327 326 315 311 317 308 312 317 313 305 302 306 304
22 111 295 11 54 156 352 355 7 173 165 211 278 255 165 62 352 343 345 338 337 345 355 356 347 336 335 328 320 334 331 327 323 322 314 315 313 315 316 312 312 302 303 303
2 140 272 255 316 142 155 210 153 125 279 254 151 264 38 3 338 335 318 320 326 337 345 339 336 337 332 323 323 330 329 327 322 320 314 313 315 308 305 308 312 315 299 305
15 341 336 333 0 357 35 328 348 289 155 208 165 261 333 330 318 309 309 309 321 335 334 333 335 333 328 327 326 327 322 316 319 316 313 312 312 313 307 306 308 310 305 294
117 206 193 212 221 293 274 290 306 253 167 285 250 286 300 301 297 305 321 345 340 333 332 328 322 322 314 321 322 323 318 317 316 318 310 309 309 308 309 303 305 301 311 287
138 241 238 271 284 293 284 286 278 256 252 240 283 279 284 295 308 0 338 331 334 328 322 315 312 314 313 320 321 319 316 316 315 315 308 304 306 308 306 304 301 297 309 309
161 273 319 285 268 269 278 284 283 267 263 265 274 287 304 318 329 334 325 322 319 315 308 309 320 314 314 316 316 315 314 314 311 313 309 308 305 305 308 303 296 300 302 310
314 189 5 266 326 311 301 243 247 269 236 276 294 294 293 310 314 317 314 310 306 308 305 306 309 303 304 305 314 314 313 310 306 311 308 308 307 310 309 303 308 313 302 300
189 111 171 272 353 342 243 314 293 280 276 275 285 306 310 304 304 302 302 303 300 304 305 302 303 304 297 307 310 307 309 306 306 307 304 305 308 309 303 312 310 309 301 300
202 141 278 295 212 277 290 249 256 275 298 241 275 304 309 307 305 296 301 302 297 299 299 301 303 300 298 303 306 302 303 305 306 299 307 308 305 306 304 307 309 309 303 297
181 162 157 141 194 256 235 278 334 294 297 179 321 313 317 330 309 302 312 306 304 301 304 303 302 296 302 301 303 296 297 304 299 302 300 304 308 300 302 306 310 312 306 298
152 205 218 229 241 272 250 272 334 57 278 320 322 320 311 303 295 301 306 306 305 304 305 302 298 296 295 299 299 288 295 298 298 294 301 302 307 298 304 305 303 308 301 297
174 179 207 157 182 263 144 5 86 281 308 313 325 326 314 309 308 309 308 306 305 304 304 302 298 296 297 298 296 292 299 294 296 298 299 304 298 302 302 307 308 310 300 293
233 195 193 183 217 233 289 309 308 315 328 331 326 321 319 315 311 311 311 311 308 306 305 302 298 298 299 295 294 294 291 293 295 293 296 296 300 299 304 304 309 304 299 280
262 227 232 18 263 267 302 300 304 326 328 327 323 317 316 313 315 312 310 310 311 309 308 305 301 298 295 296 296 289 292 289 291 292 295 298 298 296 300 305 307 298 297 268
218 322 238 260 284 288 282 292 310 322 327 328 321 322 319 317 315 315 314 313 311 309 307 305 300 296 294 295 294 293 287 292 284 296 301 298 293 296 303 304 305 296 290 269
213 218 186 241 247 266 292 299 326 333 328 323 327 327 324 324 320 320 316 315 312 309 308 306 301 298 298 296 293 290 290 290 292 294 294 292 295 293 297 302 299 277 264 240
Height
1544 1551 1556 1548 1545 1544 1546 1547 1550 1540 1532 1534 1534 1528 1519 1513 1514 1521 1523 1524 1524 1524 1525 1521 1517 1513 1509 1507 1507 1507 1508 1508 1508 1510 1513 1513 1511 1505 1506 1506 1507 1510 1513 1516
1548 1553 1543 1541 1540 1541 1543 1547 1547 1536 1532 1534 1534 1530 1531 1525 1527 1528 1528 1526 1524 1524 1522 1520 1516 1514 1511 1510 1508 1507 1507 1509 1509 1509 1510 1510 1508 1507 1503 1500 1500 1502 1506 1509
1549 1544 1540 1540 1543 1544 1544 1545 1546 1547 1539 1534 1532 1537 1534 1533 1530 1530 1530 1530 1525 1524 1523 1520 1517 1515 1513 1511 1509 1507 1506 1505 1505 1506 1505 1503 1502 1502 1503 1502 1497 1499 1499 1500
1544 1539 1541 1544 1546 1546 1550 1539 1540 1542 1550 1557 1539 1566 1536 1536 1534 1533 1532 1529 1526 1524 1523 1521 1519 1517 1515 1514 1513 1511 1509 1505 1503 1502 1500 1501 1501 1499 1499 1499 1499 1494 1492 1493
1549 1542 1542 1544 1545 1543 1547 1539 1541 1541 1548 1549 1544 1555 1542 1534 1540 1539 1535 1532 1529 1527 1524 1523 1522 1521 1520 1517 1514 1512 1510 1507 1505 1503 1501 1498 1496 1496 1493 1491 1489 1489 1489 1486
1544 1538 1539 1542 1541 1541 1540 1542 1538 1535 1547 1562 1541 1540 1545 1544 1544 1542 1537 1534 1532 1530 1527 1525 1524 1522 1520 1517 1515 1513 1510 1507 1504 1501 1500 1496 1493 1490 1487 1486 1483 1481 1481 1480
1548 1543 1542 1542 1546 1542 1546 1553 1567 1556 1559 1558 1532 1534 1545 1546 1543 1541 1539 1536 1533 1531 1528 1525 1522 1519 1517 1516 1513 1510 1506 1504 1501 1499 1497 1495 1491 1486 1482 1480 1478 1474 1472 1471
1568 1560 1546 1546 1550 1553 1553 1553 1571 1571 1570 1561 1535 1543 1544 1541 1540 1539 1538 1536 1532 1529 1526 1524 1521 1519 1517 1514 1511 1507 1504 1500 1497 1496 1492 1489 1486 1482 1478 1475 1472 1468 1465 1463
1577 1561 1550 1548 1548 1550 1554 1562 1558 1566 1562 1566 1551 1537 1542 1537 1535 1534 1534 1532 1529 1525 1522 1520 1518 1516 1513 1510 1509 1505 1500 1498 1496 1491 1488 1485 1481 1477 1473 1468 1465 1461 1457 1454
1573 1578 1556 1552 1549 1549 1552 1553 1567 1574 1576 1576 1554 1537 1533 1535 1534 1531 1530 1527 1524 1522 1519 1517 1514 1510 1506 1503 1500 1499 1498 1495 1492 1489 1484 1478 1474 1470 1465 1461 1456 1452 1447 1446
1574 1578 1567 1556 1556 1561 1562 1564 1563 1567 1572 1579 1574 1551 1532 1530 1528 1523 1516 1515 1516 1518 1514 1510 1509 1509 1507 1505 1502 1499 1495 1491 1486 1482 1477 1472 1467 1462 1458 1454 1448 1443 1440 1439
1579 1582 1585 1568 1558 1556 1558 1561 1564 1588 1573 1573 1590 1545 1522 1525 1528 1526 1526 1523 1520 1518 1515 1511 1507 1504 1501 1499 1496 1491 1487 1482 1479 1475 1470 1465 1460 1455 1450 1446 1442 1438 1435 1433
1580 1585 1597 1567 1565 1559 1563 1562 1564 1568 1576 1579 1591 1536 1521 1525 1527 1524 1521 1520 1517 1513 1510 1507 1503 1498 1495 1492 1490 1486 1481 1476 1472 1467 1462 1457 1452 1447 1443 1439 1435 1432 1427 1421
1578 1583 1585 1590 1571 1572 1571 1566 1568 1571 1598 1564 1551 1541 1533 1532 1526 1522 1519 1517 1513 1509 1506 1502 1497 1493 1489 1486 1483 1479 1474 1469 1464 1459 1454 1449 1444 1440 1436 1432 1428 1423 1418 1413
1578 1583 1578 1572 1569 1568 1563 1560 1561 1563 1561 1567 1537 1540 1534 1529 1525 1521 1518 1513 1509 1505 1500 1495 1490 1486 1482 1478 1475 1471 1466 1461 1456 1452 1446 1441 1436 1432 1428 1423 1419 1416 1412 1407
1577 1583 1577 1573 1565 1563 1558 1553 1552 1550 1548 1545 1539 1531 1528 1524 1521 1517 1514 1509 1505 1500 1495 1490 1485 1480 1475 1472 1468 1464 1458 1454 1450 1444 1437 1432 1428 1424 1419 1414 1410 1407 1402 1397
1579 1582 1585 1587 1565 1562 1564 1546 1542 1540 1539 1539 1536 1528 1524 1520 1516 1514 1508 1505 1500 1495 1490 1484 1480 1474 1469 1464 1461 1456 1451 1446 1441 1436 1428 1423 1419 1415 1411 1406 1403 1399 1393 1388
1576 1580 1585 1588 1575 1585 1540 1534 1536 1535 1532 1530 1526 1523 1521 1517 1510 1506 1503 1498 1493 1488 1482 1477 1471 1465 1460 1456 1453 1449 1443 1437 1432 1426 1420 1416 1411 1407 1403 1398 1394 1389 1384 1377
1568 1578 1590 1594 1591 1559 1539 1532 1534 1532 1526 1523 1522 1519 1514 1509 1500 1493 1495 1491 1485 1480 1473 1467 1463 1457 1451 1447 1444 1439 1433 1428 1422 1416 1411 1408 1404 1399 1394 1389 1384 1380 1373 1368
1564 1568 1579 1582 1597 1590 1537 1527 1527 1525 1524 1517 1518 1513 1508 1503 1500 1484 1485 1480 1473 1468 1464 1458 1453 1448 1443 1438 1434 1428 1422 1418 1412 1407 1402 1399 1395 1390 1385 1381 1376 1369 1365 1360
1568 1572 1571 1573 1587 1553 1528 1526 1523 1540 1526 1513 1511 1507 1503 1499 1495 1483 1477 1471 1467 1460 1453 1448 1442 1436 1430 1427 1422 1416 1411 1407 1403 1398 1393 1390 1385 1382 1376 1371 1367 1361 1355 1351
1563 1576 1573 1570 1579 1557 1521 1522 1531 1522 1511 1511 1507 1504 1498 1491 1482 1476 1469 1463 1456 1449 1442 1437 1430 1422 1418 1415 1411 1405 1400 1396 1392 1388 1383 1380 1376 1373 1368 1363 1355 1349 1346 1343
1559 1546 1554 1550 1536 1517 1516 1516 1516 1514 1510 1506 1504 1498 1493 1484 1476 1469 1460 1453 1446 1440 1432 1426 1419 1410 1405 1402 1400 1393 1388 1384 1381 1377 1373 1370 1366 1363 1359 1355 1348 1342 1338 1336
1538 1534 1537 1534 1514 1513 1513 1512 1512 1509 1506 1502 1498 1492 1486 1478 1471 1462 1454 1444 1436 1428 1421 1414 1406 1398 1392 1389 1386 1382 1377 1374 1370 1366 1362 1359 1354 1352 1348 1345 1338 1333 1328 1327
1534 1530 1525 1521 1513 1510 1509 1509 1506 1503 1501 1496 1491 1487 1481 1473 1463 1457 1447 1437 1428 1419 1410 1402 1394 1385 1379 1376 1371 1368 1365 1363 1358 1355 1353 1348 1345 1343 1338 1334 1330 1326 1322 1323
1521 1518 1524 1512 1507 1507 1505 1503 1500 1497 1494 1490 1484 1475 1472 1468 1459 1451 1440 1431 1421 1408 1398 1388 1380 1371 1365 1361 1358 1356 1354 1352 1348 1345 1343 1340 1336 1334 1330 1324 1320 1320 1319 1319